Location: Calvera
(42.3882°N, 0.6137°E)
Time: 19:27:17
(UTC+00:00)

Cosmos 220 Rocket - Pass Details

Date: 28 October 2020
Orbit: 574 x 618 km, 74.0° (Epoch: 22 November)

Event Time Altitude Azimuth Distance (km) Brightness Sun altitude
Exits shadow 05:09:17 13° 322° (NW) 1,772 6.0 -14.8°
Maximum altitude 05:12:50 39° 257° (WSW) 929 4.5 -14.1°
Drops below altitude 10° 05:16:55 10° 188° (S) 1,960 6.6 -13.4°
Sets 05:19:14 0° 181° (S) 2,854 7.5 -12.9°
